Starlink 11616

operational
NORAD ID: 63137 Int'l Des: 2025-043 Owner: SPXS Country: US Constellation: starlink
LEOCIRCULAR

Über Starlink 11616

Beschreibung wird geladen...

Live-Position

3D-Globus wird geladen...

Nächste Überflüge

Höhenverlauf

Altitude vs Time

uPlot chart will show altitude changes over time

Zweizeiliger Elementsatz

1 63137U 25043F 25257.36000385 .00173968 00000-0 13313-2 0 9997
2 63137 42.9993 233.2513 0001484 273.2577 86.8121 15.70835414 31746
Epoch: 14. Sept. 2025 • Age: 42 hours

Aktueller Status

Höhe 357.8 km
Geschwindigkeit 7.70 km/s
Subsatellitenpunkt 38.22°N, 44.45°W
Startdatum 3. März 2025
Alter 0.5 years
Typ internet

Technische Details

Klassifizierung Payload
Masse 960.00 kg
Trockenmasse 910.00 kg
Gesamtmasse 960.00 kg
Länge 0.30 m
Durchmesser 4.10 m
Spannweite 29.00 m
Form Box + pan
Hersteller SPXS
Bus-Typ Starlink V2MD
Phasenstatus In Orbit
Besitzer/Staat SPXS/US

Große Konstellationen

Loading constellations...